changsha , China , ASIA

  • Friday
    November 16

    Light rain  Light rain

    57 °F  50 °F

    Northeast  Northeast

        

  • Saturday
    November 17

    Light rain  Light rain

    54 °F  48 °F

    Northwest  Northwest

    3~4L   3~4L 

  • Sunday
    November 18

    Light rain  Overcast

    52 °F  45 °F

    Northwest  Northwest

    3~4L    

  • Monday
    November 19

    Overcast  Shower

    55 °F  46 °F

    North  North

        

  • Tuesday
    November 20

    Overcast  Overcast

    57 °F  50 °F

    North  North

        

  • Wednesday
    November 21

    Light rain  Overcast

    52 °F  46 °F

    Northwest  Northwest

    3~4L   3~4L 

  • Thursday
    November 22

    Cloudy  Cloudy

    61 °F  45 °F

    Northwest  Northwest

        

Date   Weather Temperature Humidity Total_rain Visibility Wind
11:00 Light rain 53°F 99% 0.9mm 999.9km Northeast  3.2m/s
14:00 Light rain 57°F 97% 2.3mm 999.9km Northeast  2.7m/s
17:00 Light rain 53°F 95.8% 0.5mm 999.9km Northeast  3.0m/s
20:00 Light rain 52°F 95.5% 0.1mm 999.9km Northeast  2.4m/s
23:00 Light rain 50°F 95.2% 0.1mm 999.9km Northeast  2.3m/s
02:00 Overcast 53°F 96.9% 0mm 999.9km Northeast  2.0m/s
05:00 Light rain 53°F 97.8% 0.1mm 999.9km Northeast  2.2m/s
08:00 Light rain 52°F 96.8% 0.2mm 999.9km Northeast  1.4m/s
11:00 Light rain 52°F 90.1% 0.4mm 999.9km Northeast  2.2m/s
14:00 Light rain 53°F 94.1% 0.7mm 999.9km Northwest  2.4m/s
17:00 Light rain 52°F 94.8% 0.5mm 999.9km Northwest  2.8m/s
20:00 Light rain 52°F 95.2% 0.4mm 999.9km Northwest  2.7m/s
23:00 Light rain 52°F 96% 0.9mm 999.9km Northwest  2.9m/s
02:00 Light rain 50°F 97.2% 1.9mm 999.9km Northwest  2.8m/s
05:00 Light rain 49°F 98% 1.3mm 999.9km Northwest  3.0m/s
08:00 Light rain 49°F 97.5% 0.7mm 999.9km Northwest  2.7m/s
11:00 Light rain 51°F 90.8% 0.8mm 999.9km Northwest  2.8m/s
14:00 Light rain 51°F 97.5% 0.6mm 999.9km Northwest  2.8m/s
17:00 Light rain 51°F 94.8% 0.3mm 999.9km Northwest  2.0m/s
20:00 Cloudy 49°F 93.7% 0mm 999.9km Northwest  3.0m/s
23:00 Overcast 50°F 93.8% 0mm 999.9km Northwest  2.6m/s
02:00 Overcast 48°F 95.1% 0mm 999.9km Northwest  2.1m/s
05:00 Overcast 47°F 95.9% 0mm 999.9km Northwest  2.0m/s
08:00 Overcast 45°F 95.4% 0mm 999.9km Northwest  1.8m/s
11:00 Overcast 53°F 78% 0mm 999.9km Northeast  1.6m/s
14:00 Overcast 55°F 85.1% 0mm 999.9km Northeast  1.6m/s
17:00 Overcast 54°F 85.6% 0mm 999.9km Northeast  1.7m/s
20:00 Overcast 52°F 89.5% 0mm 999.9km Northeast  1.4m/s
23:00 Shower 51°F 90.8% 0.1mm 999.9km Northeast  1.1m/s
02:00 Shower 50°F 95.8% 0.5mm 999.9km Northeast  1.5m/s
05:00 Shower 50°F 98% 0.3mm 999.9km Northeast  1.5m/s
08:00 Shower 47°F 96.7% 0.1mm 999.9km Northeast  1.5m/s
11:00 Overcast 56°F 92.3% 0mm 999.9km Northeast  1.7m/s
14:00 Overcast 56°F 93% 0mm 999.9km Northwest  2.7m/s
17:00 Overcast 57°F 93.3% 0mm 999.9km Northwest  1.8m/s
20:00 Overcast 54°F 93.6% 0mm 999.9km Northwest  1.6m/s
23:00 Overcast 53°F 98% 0mm 999.9km Northwest  1.8m/s
02:00 Overcast 52°F 96.8% 0mm 999.9km Northwest  0.9m/s
05:00 Overcast 51°F 95.5% 0mm 999.9km Northwest  2.1m/s
08:00 Overcast 50°F 86.8% 0mm 999.9km Northwest  2.1m/s
11:00 Overcast 50°F 77.2% 0mm 999.9km Northwest  1.9m/s
14:00 Light rain 50°F 86.2% 0.1mm 999.9km Northeast  2.5m/s
17:00 Cloudy 51°F 86.9% 0mm 999.9km Northwest  1.5m/s
20:00 Overcast 49°F 87.6% 0mm 999.9km Northeast  1.4m/s
23:00 Overcast 49°F 98% 0mm 999.9km Northeast  1.7m/s
02:00 Overcast 48°F 94.3% 0mm 999.9km Northeast  1.3m/s
05:00 Overcast 47°F 97.5% 0mm 999.9km Northwest  1.7m/s
08:00 Overcast 48°F 80.4% 0mm 999.9km Northeast  1.0m/s
11:00 Cloudy 53°F 68.9% 0mm 999.9km Northwest  2.1m/s
14:00 Cloudy 57°F 77.6% 0mm 999.9km Northeast  2.0m/s
17:00 Cloudy 60°F 79.6% 0mm 999.9km Southwest  1.2m/s
20:00 Cloudy 53°F 84.5% 0mm 999.9km Northeast  1.5m/s
23:00 Cloudy 50°F 90.2% 0mm 999.9km Southeast  0.9m/s
02:00 Cloudy 48°F 96.1% 0mm 999.9km Southeast  1.2m/s
05:00 Cloudy 45°F 98% 0mm 999.9km Southeast  1.4m/s